Wind_Speed
49 48 49 49 48 48 48 47 47 46 45 45 45 45 45 46 46 46 46 47 47 47 46 47 47 47 47 47 47 47 47 47 47 46 46 46 46 46
49 49 48 48 48 48 48 49 49 49 48 46 46 46 46 47 47 47 47 48 48 48 48 48 49 49 49 48 48 49 49 48 48 47 47 47 47 47
51 50 50 49 49 49 49 49 49 49 49 48 47 48 48 48 48 48 49 49 49 50 50 50 50 50 50 50 49 49 50 50 49 49 48 48 49 49
51 51 51 51 51 51 50 50 50 50 49 49 49 49 49 50 50 50 50 51 51 51 51 51 51 50 51 51 50 50 50 50 50 50 50 50 50 50
51 51 51 52 52 52 52 52 52 52 51 51 51 50 51 51 51 51 51 51 51 52 52 51 51 52 52 52 52 51 51 51 51 52 52 51 51 51
51 52 52 52 52 53 53 54 54 53 53 53 52 52 52 52 52 52 53 52 52 53 53 53 53 54 53 53 52 52 52 52 52 52 53 53 53 53
52 52 53 53 54 54 54 55 55 55 55 55 54 53 52 52 52 53 53 54 54 54 55 54 54 54 54 54 53 53 52 53 53 53 54 54 55 55
52 53 53 54 55 55 55 56 56 55 55 55 55 54 53 53 53 54 54 55 55 55 55 55 54 54 54 54 54 54 54 54 54 54 55 55 56 56
52 53 53 53 54 55 55 56 56 56 56 55 55 55 54 54 55 55 55 55 55 55 56 55 54 53 53 53 54 55 55 54 54 54 54 55 56 57
53 53 53 53 53 54 55 55 55 55 55 55 55 55 56 56 55 56 56 56 55 55 55 55 55 55 55 54 54 54 54 55 55 55 55 55 56 56
52 53 53 52 52 53 55 55 56 56 56 56 56 56 56 56 56 56 56 55 55 54 55 55 55 55 55 54 54 54 54 54 55 55 55 55 55 55
53 52 52 52 52 53 54 54 55 55 56 56 56 56 56 55 55 55 55 56 56 55 54 55 54 54 54 53 53 53 53 54 54 54 54 54 54 54
52 51 52 53 53 53 52 53 53 53 54 54 55 55 55 55 54 54 55 56 56 55 54 54 54 53 53 52 52 52 53 53 53 53 53 53 53 54
50 50 50 50 51 51 51 52 52 53 53 53 53 54 54 54 53 53 54 54 54 54 54 53 53 52 52 51 51 51 52 52 53 53 53 52 52 53
49 49 49 49 49 49 50 50 51 51 51 51 51 52 52 52 53 53 53 53 53 52 52 52 51 50 50 50 50 50 51 52 52 52 52 52 52 53
48 48 48 48 48 48 48 48 48 49 49 50 50 51 50 51 51 52 52 52 52 51 51 50 50 49 49 49 49 49 50 50 50 51 51 52 52 52
45 46 47 47 47 46 46 46 47 48 48 49 49 49 49 50 50 51 51 50 50 49 49 49 49 48 48 49 49 49 49 49 49 49 50 50 50 51
44 45 45 45 46 45 45 46 46 47 47 48 48 48 48 48 48 48 48 49 48 48 48 48 48 48 49 49 49 49 49 48 48 48 49 49 49 50
41 41 42 42 43 43 44 44 44 44 45 45 45 46 46 46 46 47 47 47 47 47 47 48 48 48 49 49 49 50 50 49 49 49 49 49 50 50
39 40 40 41 41 42 42 42 42 42 43 43 43 44 45 45 45 45 45 45 45 45 46 47 48 48 48 48 49 49 50 50 50 50 50 50 50 50
38 38 39 39 39 40 41 41 41 41 41 41 41 42 42 43 43 44 44 45 45 45 45 46 47 48 48 48 48 47 49 50 50 50 50 50 50 49
36 36 36 36 36 37 38 39 39 39 40 40 40 40 41 42 42 42 43 43 44 44 44 45 45 46 46 47 47 47 48 49 49 49 48 49 49 49
35 35 35 35 36 36 37 38 37 37 37 37 38 39 40 41 41 41 42 42 42 43 43 44 45 46 46 46 47 47 48 48 49 48 48 48 48 48
Wind_Direction
254 254 255 256 257 257 257 258 259 260 261 262 264 264 266 267 268 268 268 268 268 269 269 269 269 269 271 273 273 273 274 274 275 275 276 276 277 277
254 254 256 257 258 258 258 258 260 262 262 263 264 265 266 267 268 268 269 268 268 269 270 270 270 270 271 272 273 274 274 274 274 274 275 275 276 277
254 255 256 257 258 259 260 260 261 262 263 264 264 264 265 266 266 268 268 269 269 270 270 271 271 271 271 272 273 273 274 274 274 274 274 275 276 276
254 255 256 257 258 259 260 261 261 263 264 264 265 266 266 265 266 267 269 269 269 269 270 271 272 272 271 271 272 272 272 273 273 273 274 274 275 276
255 256 256 257 258 259 260 262 262 263 264 265 265 265 265 265 266 267 268 269 269 270 270 271 272 272 272 272 272 272 272 272 273 274 274 274 274 276
257 258 257 258 258 259 261 262 263 263 264 265 265 266 266 266 266 267 267 268 270 270 271 272 271 272 272 272 272 271 272 272 273 274 274 274 275 276
259 259 259 259 260 260 261 262 263 263 265 265 265 266 267 266 266 267 268 268 270 271 272 271 271 272 272 273 272 272 272 272 273 274 274 274 275 276
259 260 260 261 261 262 263 263 263 264 265 266 266 267 267 266 267 268 269 269 270 270 270 270 271 272 272 272 272 272 272 272 273 274 274 274 275 276
259 261 261 261 262 262 262 262 263 264 265 266 266 267 267 267 268 269 269 269 270 270 270 271 271 272 273 272 273 273 273 273 273 274 274 275 276 277
260 261 261 261 263 262 261 262 263 264 265 266 267 267 267 268 269 269 269 270 270 270 270 271 271 272 272 273 273 273 273 274 274 274 275 276 277 278
259 260 261 261 262 263 262 262 262 263 264 265 266 267 268 268 268 268 269 269 269 270 270 271 271 272 272 273 272 273 273 274 275 275 276 276 277 278
260 261 262 262 263 263 263 264 263 264 265 265 266 267 268 268 268 268 269 269 270 270 271 271 271 272 272 271 272 272 273 274 274 275 275 276 277 278
260 261 262 262 263 264 264 265 265 266 266 267 266 267 268 268 268 269 269 269 270 270 270 270 271 271 271 271 272 272 272 273 274 275 276 276 277 277
259 260 262 262 263 264 265 265 266 267 267 267 266 266 267 267 268 268 269 269 269 270 270 270 270 271 271 272 272 272 273 273 274 275 276 276 277 277
259 260 261 262 262 264 265 265 266 266 266 266 266 266 267 267 267 268 268 269 269 270 270 270 271 271 271 271 272 272 273 274 274 275 276 276 277 277
260 260 261 262 264 265 266 266 267 267 267 266 266 266 267 267 268 268 269 269 270 270 270 270 271 271 270 271 272 273 274 275 275 276 276 277 277 278
259 260 261 262 263 265 266 267 268 268 267 267 266 266 266 267 268 268 268 269 269 270 270 270 270 271 271 271 272 274 275 276 276 276 277 277 278 279
260 261 261 262 262 264 265 266 267 268 267 267 267 267 266 267 267 267 268 269 269 270 269 270 270 271 272 273 273 274 275 276 276 277 277 277 278 278
261 262 262 262 262 262 263 265 266 266 267 267 267 267 267 267 268 268 269 270 270 270 270 270 271 271 272 273 274 274 275 276 277 278 278 278 278 278
262 262 262 262 262 262 262 263 264 265 266 267 268 268 267 267 268 269 270 270 271 271 272 272 272 273 273 274 274 275 275 276 277 278 278 279 279 279
262 262 263 262 262 262 262 263 264 266 266 267 268 268 267 268 269 270 270 270 271 272 273 274 274 274 275 274 274 274 275 276 277 278 279 279 279 279
262 263 262 262 262 263 263 265 266 267 268 268 268 269 269 269 270 271 272 272 272 273 273 274 275 275 275 274 274 274 275 276 278 278 279 280 280 279
263 263 263 263 263 264 264 265 266 267 268 269 270 270 271 271 272 272 272 273 273 274 275 275 275 275 275 275 275 275 275 276 277 278 279 279 280 280
Height
5681 5683 5686 5688 5690 5692 5694 5696 5698 5700 5703 5704 5705 5706 5706 5707 5707 5707 5708 5709 5709 5710 5711 5712 5712 5713 5713 5713 5713 5713 5713 5713 5712 5711 5710 5710 5709 5708
5669 5671 5673 5675 5677 5679 5681 5683 5684 5687 5689 5692 5693 5693 5693 5694 5695 5695 5695 5696 5697 5698 5698 5699 5699 5700 5700 5700 5701 5700 5700 5700 5699 5698 5698 5697 5697 5696
5656 5658 5661 5663 5665 5666 5668 5670 5671 5673 5675 5678 5679 5680 5680 5681 5682 5682 5682 5683 5684 5684 5685 5685 5685 5686 5686 5687 5687 5687 5687 5686 5686 5685 5684 5684 5683 5683
5643 5645 5647 5649 5652 5653 5655 5656 5658 5659 5661 5664 5665 5666 5667 5667 5668 5669 5669 5669 5670 5670 5671 5671 5672 5672 5672 5672 5673 5673 5672 5672 5672 5671 5671 5671 5670 5669
5629 5631 5633 5635 5638 5639 5641 5643 5644 5645 5647 5649 5650 5651 5652 5653 5654 5654 5655 5655 5656 5656 5656 5657 5657 5658 5658 5658 5658 5658 5658 5658 5658 5657 5656 5656 5655 5654
5614 5617 5619 5621 5623 5625 5626 5628 5629 5631 5632 5634 5635 5636 5637 5638 5639 5640 5640 5641 5641 5642 5642 5642 5643 5643 5643 5643 5644 5644 5643 5643 5642 5642 5641 5641 5640 5639
5600 5602 5604 5606 5608 5610 5611 5613 5614 5615 5617 5618 5620 5621 5622 5623 5624 5625 5625 5625 5626 5627 5627 5628 5628 5628 5628 5628 5628 5628 5628 5627 5627 5626 5626 5625 5624 5624
5585 5587 5589 5591 5593 5594 5595 5597 5598 5600 5601 5602 5604 5606 5608 5608 5609 5609 5610 5611 5612 5613 5612 5613 5613 5613 5613 5613 5612 5612 5612 5612 5611 5611 5610 5609 5608 5608
5570 5572 5574 5575 5577 5578 5580 5581 5582 5584 5585 5587 5588 5590 5592 5593 5594 5594 5594 5595 5596 5596 5596 5597 5597 5597 5597 5597 5597 5597 5596 5596 5596 5595 5594 5593 5592 5591
5555 5557 5559 5560 5561 5562 5564 5565 5567 5569 5570 5571 5573 5574 5575 5576 5577 5578 5578 5579 5580 5580 5580 5581 5582 5582 5582 5581 5581 5581 5580 5580 5580 5579 5578 5578 5576 5575
5540 5542 5543 5545 5546 5547 5548 5550 5552 5553 5553 5555 5556 5557 5558 5560 5561 5561 5562 5563 5564 5565 5564 5565 5566 5566 5566 5566 5565 5565 5565 5564 5564 5563 5563 5562 5561 5560
5525 5527 5529 5530 5530 5531 5532 5534 5536 5537 5538 5539 5541 5542 5542 5543 5544 5545 5545 5546 5547 5549 5549 5548 5549 5548 5550 5550 5549 5549 5549 5548 5548 5547 5547 5546 5545 5544
5510 5512 5514 5514 5515 5516 5517 5519 5520 5521 5522 5524 5525 5526 5527 5528 5528 5529 5529 5529 5530 5532 5533 5532 5532 5532 5532 5534 5534 5534 5533 5533 5532 5532 5531 5530 5529 5527
5495 5497 5498 5499 5500 5501 5502 5504 5505 5505 5507 5508 5509 5510 5511 5512 5513 5513 5513 5513 5514 5515 5515 5515 5516 5516 5517 5518 5519 5519 5518 5517 5516 5516 5515 5514 5513 5511
5480 5482 5483 5484 5485 5487 5488 5489 5490 5490 5492 5493 5494 5495 5496 5496 5496 5497 5497 5498 5498 5499 5499 5500 5501 5501 5502 5503 5503 5503 5503 5502 5501 5500 5499 5498 5497 5496
5465 5466 5468 5469 5471 5472 5474 5475 5475 5476 5477 5478 5479 5480 5480 5481 5481 5481 5482 5482 5483 5484 5484 5485 5485 5486 5487 5487 5488 5488 5487 5487 5486 5484 5484 5483 5481 5480
5451 5452 5454 5456 5458 5459 5460 5461 5461 5462 5462 5463 5464 5465 5466 5466 5467 5467 5467 5467 5468 5469 5470 5470 5470 5471 5471 5472 5472 5472 5471 5471 5470 5469 5469 5467 5466 5464
5437 5439 5441 5443 5445 5446 5447 5447 5448 5448 5448 5449 5449 5450 5451 5451 5452 5452 5453 5453 5454 5454 5455 5456 5456 5456 5456 5456 5457 5457 5456 5456 5455 5454 5453 5452 5451 5449
5424 5426 5428 5430 5431 5432 5433 5434 5434 5434 5435 5435 5436 5436 5437 5437 5438 5438 5438 5439 5439 5440 5440 5441 5441 5441 5442 5443 5443 5441 5441 5441 5440 5439 5438 5437 5436 5435
5412 5414 5415 5417 5418 5419 5420 5420 5421 5422 5422 5422 5423 5423 5423 5424 5424 5425 5425 5425 5425 5426 5426 5426 5426 5427 5427 5428 5428 5427 5426 5425 5425 5424 5423 5422 5421 5419
5401 5402 5403 5404 5405 5406 5407 5407 5408 5409 5409 5409 5410 5410 5411 5411 5411 5411 5411 5412 5412 5412 5412 5412 5412 5412 5412 5412 5412 5412 5411 5410 5409 5408 5407 5406 5405 5404
5389 5390 5391 5391 5392 5393 5394 5395 5396 5397 5397 5398 5398 5398 5398 5398 5398 5398 5398 5398 5398 5398 5398 5398 5397 5397 5396 5397 5396 5396 5396 5395 5393 5392 5390 5389 5388 5388
5377 5378 5379 5380 5381 5381 5382 5383 5384 5385 5385 5386 5386 5386 5386 5386 5386 5386 5386 5385 5385 5385 5384 5384 5383 5382 5382 5381 5381 5381 5380 5379 5378 5377 5375 5373 5372 5371